GW2027 Weather Reports


time (UTC)temp
C
wind
direction
speed
KPH
gust
KPH
rain 1hr
cm
rain 24hr
cm
rain mn
cm
humidity
%
barometer
mb
20260504215223 22 142 8.0 9.7 0.00 0.00 0.00 29 1010.5
20260504214718 22 116 8.0 11.3 0.00 0.00 0.00 29 1010.5
20260504214215 22 114 11.3 14.5 0.00 0.00 0.00 28 1010.5
20260504213712 22 184 3.2 4.8 0.00 0.00 0.00 28 1010.5
20260504213208 23 46 6.4 6.4 0.00 0.00 0.00 28 1010.5
20260504212705 23 165 4.8 4.8 0.00 0.00 0.00 27 1010.5
20260504212202 23 144 8.0 12.9 0.00 0.00 0.00 27 1010.6
20260504211659 23 131 9.7 12.9 0.00 0.00 0.00 26 1010.5
20260504211155 25 144 1.6 3.2 0.00 0.00 0.00 25 1010.4
20260504210653 25 173 1.6 1.6 0.00 0.00 0.00 22 1010.6
20260504210149 25 224 0.0 0.0 0.00 0.00 0.00 22 1010.5
20260504205647 25 225 3.2 3.2 0.00 0.00 0.00 21 1010.4
20260504205144 25 154 3.2 4.8 0.00 0.00 0.00 20 1010.5
20260504204643 25 211 1.6 3.2 0.00 0.00 0.00 21 1010.7
20260504204141 25 215 3.2 3.2 0.00 0.00 0.00 21 1010.5
20260504203639 25 247 6.4 6.4 0.00 0.00 0.00 21 1010.7
20260504203137 25 239 6.4 6.4 0.00 0.00 0.00 21 1010.8
20260504202637 25 225 3.2 3.2 0.00 0.00 0.00 21 1010.7
20260504202134 24 163 1.6 3.2 0.00 0.00 0.00 23 1010.8
20260504201631 24 175 8.0 9.7 0.00 0.00 0.00 22 1010.8
20260504201129 24 238 6.4 6.4 0.00 0.00 0.00 23 1010.9
20260504200626 24 233 8.0 9.7 0.00 0.00 0.00 23 1011.1
20260504200122 25 163 3.2 4.8 0.00 0.00 0.00 23 1011.0
20260504195618 24 186 1.6 3.2 0.00 0.00 0.00 21 1011.1
20260504195114 25 240 4.8 6.4 0.00 0.00 0.00 23 1011.2
20260504194611 24 186 1.6 3.2 0.00 0.00 0.00 22 1011.3
20260504194107 23 183 1.6 1.6 0.00 0.00 0.00 22 1011.5
20260504193603 24 243 12.9 20.9 0.00 0.00 0.00 21 1011.5
20260504193102 24 266 8.0 9.7 0.00 0.00 0.00 22 1011.6
20260504192600 23 217 1.6 4.8 0.00 0.00 0.00 23 1011.6
20260504192058 23 244 6.4 6.4 0.00 0.00 0.00 23 1011.6
20260504191556 23 279 9.7 11.3 0.00 0.00 0.00 23 1011.8
20260504191051 23 249 12.9 16.1 0.00 0.00 0.00 23 1011.9
20260504190548 23 259 8.0 9.7 0.00 0.00 0.00 22 1011.9
20260504190044 23 270 14.5 16.1 0.00 0.00 0.00 24 1012.0
20260504185541 23 222 1.6 3.2 0.00 0.00 0.00 23 1012.0
20260504185038 23 181 3.2 3.2 0.00 0.00 0.00 22 1012.2
20260504184533 23 221 1.6 4.8 0.00 0.00 0.00 22 1012.4
20260504184029 23 257 6.4 11.3 0.00 0.00 0.00 22 1012.3
20260504183526 23 171 4.8 4.8 0.00 0.00 0.00 21 1012.3
20260504183024 23 264 6.4 11.3 0.00 0.00 0.00 22 1012.5
20260504182520 23 114 1.6 3.2 0.00 0.00 0.00 21 1012.5
20260504182018 23 196 3.2 3.2 0.00 0.00 0.00 21 1012.8
20260504181515 23 193 4.8 6.4 0.00 0.00 0.00 21 1012.4
20260504181014 22 222 4.8 4.8 0.00 0.00 0.00 21 1012.5
20260504180512 22 264 6.4 11.3 0.00 0.00 0.00 23 1012.6
20260504180010 22 251 8.0 9.7 0.00 0.00 0.00 22 1012.6
20260504175507 23 261 12.9 16.1 0.00 0.00 0.00 21 1012.9
20260504175004 22 229 3.2 4.8 0.00 0.00 0.00 21 1013.0
20260504174502 23 253 8.0 12.9 0.00 0.00 0.00 21 1012.9
20260504173959 22 170 1.6 1.6 0.00 0.00 0.00 22 1013.0
20260504173455 23 262 6.4 6.4 0.00 0.00 0.00 21 1013.0
20260504172953 23 193 0.0 1.6 0.00 0.00 0.00 21 1013.2
20260504172448 22 118 1.6 1.6 0.00 0.00 0.00 20 1013.2
20260504171945 22 233 1.6 3.2 0.00 0.00 0.00 21 1013.3
20260504171443 22 243 3.2 4.8 0.00 0.00 0.00 21 1013.4
20260504170939 22 245 11.3 14.5 0.00 0.00 0.00 21 1013.4
20260504170436 22 251 8.0 9.7 0.00 0.00 0.00 22 1013.1
20260504160355 21 246 3.2 4.8 0.00 0.00 0.00 24 1013.9
20260504150820 20 273 6.4 6.4 0.00 0.00 0.00 22 1014.5
20260504150316 20 257 6.4 6.4 0.00 0.00 0.00 23 1014.7
20260504141246 17 243 4.8 4.8 0.00 0.00 0.00 29 1015.2
20260504140742 17 222 0.0 0.0 0.00 0.00 0.00 32 1014.9
20260504140238 17 256 8.0 11.3 0.00 0.00 0.00 32 1015.0
20260504130707 14 251 6.4 6.4 0.00 0.00 0.00 38 1015.1
20260504130203 14 267 8.0 9.7 0.00 0.00 0.00 38 1015.1
20260504120127 12 247 3.2 4.8 0.00 0.00 0.00 43 1015.4
20260504110554 10 218 0.0 0.0 0.00 0.00 0.00 51 1015.7
20260504100516 10 200 0.0 0.0 0.00 0.00 0.00 51 1015.7
20260504081909 10 216 0.0 0.0 0.00 0.00 0.00 48 1016.1
20260504081406 10 219 0.0 0.0 0.00 0.00 0.00 47 1016.3
20260504080902 10 220 0.0 0.0 0.00 0.00 0.00 47 1016.2
20260504080359 10 220 0.0 1.6 0.00 0.00 0.00 46 1015.9
20260504070326 9 216 0.0 0.0 0.00 0.00 0.00 46 1016.3
20260504060247 8 216 0.0 0.0 0.00 0.00 0.00 47 1016.4
20260504050715 7 216 0.0 0.0 0.00 0.00 0.00 47 1016.3
20260504050212 7 216 0.0 0.0 0.00 0.00 0.00 47 1016.2
20260504045709 8 216 0.0 0.0 0.00 0.00 0.00 46 1016.4
20260504045209 8 216 0.0 0.0 0.00 0.00 0.00 46 1016.4
20260504044708 8 216 0.0 0.0 0.00 0.00 0.00 46 1016.4
20260504044204 8 216 0.0 0.0 0.00 0.00 0.00 47 1016.3
20260504043701 7 216 0.0 0.0 0.00 0.00 0.00 47 1016.3
20260504043158 7 216 0.0 0.0 0.00 0.00 0.00 47 1016.3
20260504042655 7 216 0.0 0.0 0.00 0.00 0.00 46 1016.3
20260504042152 7 216 0.0 0.0 0.00 0.00 0.00 46 1016.4
20260504041648 8 216 0.0 0.0 0.00 0.00 0.00 45 1016.3
20260504041144 8 216 0.0 0.0 0.00 0.00 0.00 45 1016.4
20260504040641 8 216 0.0 0.0 0.00 0.00 0.00 45 1016.4
20260504040138 8 216 0.0 0.0 0.00 0.00 0.00 44 1016.3
20260504035635 8 217 0.0 0.0 0.00 0.00 0.00 44 1016.2
20260504035131 8 217 0.0 0.0 0.00 0.00 0.00 43 1016.2
20260504034629 8 222 0.0 0.0 0.00 0.00 0.00 45 1016.2
20260504034126 8 213 0.0 0.0 0.00 0.00 0.00 46 1016.0
20260504033624 8 215 0.0 0.0 0.00 0.00 0.00 45 1016.0
20260504033121 8 215 0.0 0.0 0.00 0.00 0.00 46 1015.8
20260504032618 8 215 0.0 0.0 0.00 0.00 0.00 46 1015.8
20260504032115 8 216 0.0 0.0 0.00 0.00 0.00 46 1016.0
20260504031612 8 216 0.0 0.0 0.00 0.00 0.00 45 1015.8
20260504031108 8 216 0.0 0.0 0.00 0.00 0.00 45 1015.7
20260504030605 8 216 0.0 0.0 0.00 0.00 0.00 45 1015.7
20260504030101 8 215 0.0 0.0 0.00 0.00 0.00 45 1015.8
20260504025558 9 215 0.0 0.0 0.00 0.00 0.00 44 1015.8
20260504025055 9 215 0.0 0.0 0.00 0.00 0.00 43 1015.7
20260504024552 9 216 0.0 0.0 0.00 0.00 0.00 43 1015.7
20260504024049 9 216 0.0 0.0 0.00 0.00 0.00 42 1015.7
20260504023546 9 216 0.0 0.0 0.00 0.00 0.00 43 1015.7
20260504023042 9 216 0.0 0.0 0.00 0.00 0.00 42 1015.8
20260504022537 10 216 0.0 0.0 0.00 0.00 0.00 41 1015.9
20260504022034 10 216 0.0 0.0 0.00 0.00 0.00 40 1015.8
20260504021532 10 216 0.0 0.0 0.00 0.00 0.00 40 1015.8
20260504021028 10 217 0.0 0.0 0.00 0.00 0.00 40 1015.7
20260504020525 10 218 0.0 0.0 0.00 0.00 0.00 39 1015.7
20260504020022 10 218 0.0 0.0 0.00 0.00 0.00 39 1015.7
20260504015518 10 218 0.0 0.0 0.00 0.00 0.00 38 1015.5
20260504015014 10 218 0.0 0.0 0.00 0.00 0.00 38 1015.6
20260504014510 10 218 0.0 0.0 0.00 0.00 0.00 37 1015.6
20260504014008 10 218 0.0 0.0 0.00 0.00 0.00 36 1015.5
20260504013506 10 218 0.0 0.0 0.00 0.00 0.00 35 1015.7
20260504013001 10 218 0.0 0.0 0.00 0.00 0.00 35 1015.8
20260504012500 11 218 0.0 0.0 0.00 0.00 0.00 34 1015.5
20260504011957 11 218 0.0 0.0 0.00 0.00 0.00 33 1015.5
20260504011453 11 218 0.0 0.0 0.00 0.00 0.00 32 1015.5
20260504010949 11 218 0.0 0.0 0.00 0.00 0.00 32 1015.3
20260504010446 11 218 0.0 0.0 0.00 0.00 0.00 31 1015.4
20260504005942 12 218 0.0 0.0 0.00 0.00 0.00 30 1015.3
20260504005439 12 218 0.0 0.0 0.00 0.00 0.00 29 1015.5
20260504004936 12 218 0.0 0.0 0.00 0.00 0.00 29 1015.4
20260504004434 13 221 0.0 0.0 0.00 0.00 0.00 27 1015.3
20260504003930 13 221 0.0 0.0 0.00 0.00 0.00 27 1015.2
20260504003427 13 222 0.0 0.0 0.00 0.00 0.00 26 1015.1
20260504002924 14 223 0.0 0.0 0.00 0.00 0.00 26 1015.0
20260504002420 14 225 0.0 0.0 0.00 0.00 0.00 24 1015.1
20260504001918 15 232 1.6 1.6 0.00 0.00 0.00 23 1015.1
20260504001416 15 234 1.6 1.6 0.00 0.00 0.00 23 1014.9
20260504000912 15 239 3.2 3.2 0.00 0.00 0.00 23 1014.8
20260504000409 15 235 1.6 3.2 0.00 0.00 0.00 22 1014.7
20260503235906 15 236 1.6 1.6 0.00 0.00 0.00 22 1014.8
20260503235404 15 238 1.6 3.2 0.00 0.00 0.00 21 1014.8
20260503234901 15 257 6.4 6.4 0.00 0.00 0.00 21 1014.8
20260503234359 16 254 6.4 6.4 0.00 0.00 0.00 20 1014.6
20260503233856 16 228 3.2 4.8 0.00 0.00 0.00 20 1014.5
20260503233353 16 254 4.8 4.8 0.00 0.00 0.00 19 1014.4
20260503232849 16 236 3.2 3.2 0.00 0.00 0.00 20 1014.8
20260503232347 16 261 6.4 6.4 0.00 0.00 0.00 20 1014.5
20260503231844 16 246 4.8 4.8 0.00 0.00 0.00 19 1014.5
20260503231341 16 264 4.8 6.4 0.00 0.00 0.00 19 1014.2
20260503230837 16 275 8.0 9.7 0.00 0.00 0.00 18 1014.4
20260503230334 17 233 3.2 4.8 0.00 0.00 0.00 19 1014.5
20260503225832 17 244 4.8 4.8 0.00 0.00 0.00 18 1014.3
20260503225328 17 260 8.0 9.7 0.00 0.00 0.00 18 1014.6
20260503224824 17 265 6.4 6.4 0.00 0.00 0.00 17 1014.5
20260503224321 16 255 4.8 6.4 0.00 0.00 0.00 18 1014.6
20260503223819 16 257 4.8 4.8 0.00 0.00 0.00 18 1014.6
20260503223317 16 236 11.3 14.5 0.00 0.00 0.00 18 1014.4
20260503222812 16 253 9.7 12.9 0.00 0.00 0.00 17 1014.4
20260503222311 17 270 19.3 22.5 0.00 0.00 0.00 17 1014.5
20260503221809 17 268 11.3 12.9 0.00 0.00 0.00 17 1014.4
20260503221307 17 228 4.8 6.4 0.00 0.00 0.00 17 1014.6
20260503220802 17 254 9.7 11.3 0.00 0.00 0.00 17 1014.6
20260503220300 17 240 6.4 9.7 0.00 0.00 0.00 17 1014.6
20260503215756 17 270 11.3 14.5 0.00 0.00 0.00 17 1014.6